Time,TemperatureF,DewpointF,PressureIn,WindDirection,WindDirectionDegrees,WindSpeedMPH,WindSpeedGustMPH,Humidity,HourlyPrecipIn,Conditions,Clouds,dailyrainin,SoftwareType,DateUTC
2013-07-01 00:00:00,63.3,59.4,29.99,North,353,0.0,0.0,87,0.00,,SCT,0.00,VWS V14.00,2013-07-01 04:00:00,
2013-07-01 00:01:00,63.4,52.3,30.14,NNE,14,3.9,8.8,67,0.00,,OVC,0.00,VWS V14.00,2013-07-01 04:01:00,
2013-07-01 00:03:00,61.6,58.6,30.00,North,353,0.0,0.0,90,0.00,,FEW,0.00,VWS V14.00,2013-07-01 04:03:00,
2013-07-01 00:08:00,61.3,58.4,30.01,North,353,0.0,0.0,90,0.00,,FEW,0.00,VWS V14.00,2013-07-01 04:08:00,
2013-07-01 00:13:00,61.4,58.6,30.01,North,353,0.0,0.0,90,0.00,,FEW,0.00,VWS V14.00,2013-07-01 04:13:00,
2013-07-01 00:18:00,61.2,58.5,30.01,North,353,0.0,0.0,91,0.00,,FEW,0.00,VWS V14.00,2013-07-01 04:18:00,
2013-07-01 00:23:00,61.2,58.6,30.01,North,353,0.0,0.0,91,0.00,,FEW,0.00,VWS V14.00,2013-07-01 04:23:00,
2013-07-01 00:28:00,61.2,58.6,30.01,North,353,0.0,0.0,91,0.00,,FEW,0.00,VWS V14.00,2013-07-01 04:28:00,
2013-07-01 00:30:00,61.2,58.6,30.01,North,353,0.0,0.0,91,0.00,,FEW,0.00,VWS V14.00,2013-07-01 04:30:00,
2013-07-01 00:33:00,61.1,58.5,30.01,North,353,0.0,0.0,91,0.00,,FEW,0.00,VWS V14.00,2013-07-01 04:33:00,
2013-07-01 00:38:00,61.1,58.6,30.01,North,353,0.0,0.0,91,0.00,,FEW,0.00,VWS V14.00,2013-07-01 04:38:00,
2013-07-01 00:43:00,61.1,58.6,30.01,North,353,0.0,0.0,92,0.00,,FEW,0.00,VWS V14.00,2013-07-01 04:43:00,
2013-07-01 00:48:00,60.9,58.4,30.02,North,353,0.0,0.0,92,0.00,,FEW,0.00,VWS V14.00,2013-07-01 04:48:00,
2013-07-01 00:53:00,60.8,58.3,30.02,North,353,0.0,0.0,92,0.00,,FEW,0.00,VWS V14.00,2013-07-01 04:53:00,
2013-07-01 00:57:00,60.7,58.3,30.01,North,353,0.0,0.0,92,0.00,,FEW,0.00,VWS V14.00,2013-07-01 04:57:00,
2013-07-01 01:00:00,60.7,58.3,30.01,North,353,0.0,0.0,92,0.00,,FEW,0.00,VWS V14.00,2013-07-01 05:00:00,
2013-07-01 01:03:00,60.8,58.5,30.01,North,353,0.0,0.0,92,0.00,,FEW,0.00,VWS V14.00,2013-07-01 05:03:00,
2013-07-01 01:08:00,60.8,58.5,30.01,North,353,0.0,0.0,92,0.00,,FEW,0.00,VWS V14.00,2013-07-01 05:08:00,
2013-07-01 01:13:00,60.7,58.5,30.01,North,353,0.0,0.0,92,0.00,,FEW,0.00,VWS V14.00,2013-07-01 05:13:00,
2013-07-01 01:18:00,60.8,58.7,30.01,North,353,0.0,0.0,93,0.00,,FEW,0.00,VWS V14.00,2013-07-01 05:18:00,
2013-07-01 01:23:00,60.9,58.8,30.01,North,353,0.0,0.0,93,0.00,,FEW,0.00,VWS V14.00,2013-07-01 05:23:00,
2013-07-01 01:28:00,60.9,59.0,30.02,North,353,0.0,0.0,94,0.00,,FEW,0.00,VWS V14.00,2013-07-01 05:28:00,
2013-07-01 01:30:00,60.9,59.0,30.02,North,353,0.0,0.0,93,0.00,,FEW,0.00,VWS V14.00,2013-07-01 05:30:00,
2013-07-01 01:33:00,61.0,59.0,30.02,North,353,0.0,0.0,93,0.00,,FEW,0.00,VWS V14.00,2013-07-01 05:33:00,
2013-07-01 01:43:00,61.3,59.4,30.02,North,353,0.0,0.0,93,0.00,,FEW,0.00,VWS V14.00,2013-07-01 05:43:00,
2013-07-01 01:48:00,61.4,59.5,30.02,North,353,0.0,0.0,93,0.00,,FEW,0.00,VWS V14.00,2013-07-01 05:48:00,
2013-07-01 01:53:00,61.5,59.6,30.02,North,353,0.0,0.0,94,0.00,,FEW,0.00,VWS V14.00,2013-07-01 05:53:00,
2013-07-01 01:58:00,61.5,59.6,30.02,North,353,0.0,0.0,93,0.00,,FEW,0.00,VWS V14.00,2013-07-01 05:58:00,
2013-07-01 02:00:00,61.5,59.6,30.02,North,353,0.0,0.0,93,0.00,,FEW,0.00,VWS V14.00,2013-07-01 06:00:00,
2013-07-01 02:03:00,61.5,59.6,30.02,North,353,0.0,0.0,93,0.00,,FEW,0.00,VWS V14.00,2013-07-01 06:03:00,
2013-07-01 02:08:00,61.5,59.6,30.02,North,353,0.0,0.0,93,0.00,,FEW,0.00,VWS V14.00,2013-07-01 06:08:00,
2013-07-01 02:13:00,61.5,59.6,30.02,North,353,0.0,0.0,93,0.00,,FEW,0.00,VWS V14.00,2013-07-01 06:13:00,
2013-07-01 02:18:00,61.4,59.5,30.02,North,353,0.0,0.0,93,0.00,,FEW,0.00,VWS V14.00,2013-07-01 06:18:00,
2013-07-01 02:23:00,61.3,59.4,30.02,North,353,0.0,0.0,93,0.00,,FEW,0.00,VWS V14.00,2013-07-01 06:23:00,
2013-07-01 02:28:00,61.3,59.4,30.02,North,353,0.0,0.0,94,0.00,,FEW,0.00,VWS V14.00,2013-07-01 06:28:00,
2013-07-01 02:30:00,61.3,59.4,30.02,North,353,0.0,0.0,94,0.00,,FEW,0.00,VWS V14.00,2013-07-01 06:30:00,
2013-07-01 02:33:00,61.2,59.3,30.02,North,353,0.0,0.0,94,0.00,,FEW,0.00,VWS V14.00,2013-07-01 06:33:00,
2013-07-01 02:38:00,61.1,59.2,30.02,North,353,0.0,0.0,94,0.00,,FEW,0.00,VWS V14.00,2013-07-01 06:38:00,
2013-07-01 02:43:00,61.1,59.2,30.02,North,353,0.0,0.0,94,0.00,,FEW,0.00,VWS V14.00,2013-07-01 06:43:00,
2013-07-01 02:48:00,61.0,59.2,30.02,North,353,0.0,0.0,94,0.00,,FEW,0.00,VWS V14.00,2013-07-01 06:48:00,
2013-07-01 02:53:00,60.7,58.8,30.02,North,353,0.0,0.0,94,0.00,,FEW,0.00,VWS V14.00,2013-07-01 06:53:00,
2013-07-01 02:58:00,60.8,59.0,30.02,North,353,0.0,0.0,94,0.00,,FEW,0.00,VWS V14.00,2013-07-01 06:58:00,
2013-07-01 03:00:00,60.7,58.9,30.02,North,353,0.0,0.0,94,0.00,,FEW,0.00,VWS V14.00,2013-07-01 07:00:00,
2013-07-01 03:03:00,60.6,58.8,30.02,North,353,0.0,0.0,94,0.00,,FEW,0.00,VWS V14.00,2013-07-01 07:03:00,
2013-07-01 03:08:00,60.5,58.7,30.03,North,353,0.0,0.0,94,0.00,,FEW,0.00,VWS V14.00,2013-07-01 07:08:00,
2013-07-01 03:13:00,60.3,58.5,30.03,North,353,0.0,0.0,94,0.00,,FEW,0.00,VWS V14.00,2013-07-01 07:13:00,
2013-07-01 03:18:00,60.4,58.6,30.03,North,353,0.0,0.0,94,0.00,,FEW,0.00,VWS V14.00,2013-07-01 07:18:00,
2013-07-01 03:23:00,60.2,58.5,30.02,North,353,0.0,0.0,94,0.00,,FEW,0.00,VWS V14.00,2013-07-01 07:23:00,
2013-07-01 03:28:00,60.1,58.4,30.02,North,353,0.0,0.0,94,0.00,,FEW,0.00,VWS V14.00,2013-07-01 07:28:00,
2013-07-01 03:30:00,60.1,58.4,30.02,North,353,0.0,0.0,94,0.00,,FEW,0.00,VWS V14.00,2013-07-01 07:30:00,
2013-07-01 03:33:00,60.0,58.3,30.02,North,353,0.0,0.0,94,0.00,,FEW,0.00,VWS V14.00,2013-07-01 07:33:00,
2013-07-01 03:38:00,59.9,58.2,30.02,North,353,0.0,0.0,94,0.00,,FEW,0.00,VWS V14.00,2013-07-01 07:38:00,
2013-07-01 03:48:00,59.5,57.8,30.02,North,353,0.0,0.0,94,0.00,,FEW,0.00,VWS V14.00,2013-07-01 07:48:00,
2013-07-01 03:53:00,59.5,57.8,30.02,North,353,0.0,0.0,94,0.00,,FEW,0.00,VWS V14.00,2013-07-01 07:53:00,
2013-07-01 03:58:00,59.5,57.9,30.02,North,353,0.0,0.0,94,0.00,,FEW,0.00,VWS V14.00,2013-07-01 07:58:00,
2013-07-01 04:00:00,59.4,57.8,30.02,North,353,0.0,0.0,94,0.00,,FEW,0.00,VWS V14.00,2013-07-01 08:00:00,
2013-07-01 04:03:00,59.6,58.0,30.03,North,353,0.0,0.0,94,0.00,,FEW,0.00,VWS V14.00,2013-07-01 08:03:00,
2013-07-01 04:08:00,59.5,57.9,30.03,North,353,0.0,0.0,94,0.00,,FEW,0.00,VWS V14.00,2013-07-01 08:08:00,
2013-07-01 04:13:00,59.4,57.8,30.03,North,353,0.0,0.0,94,0.00,,FEW,0.00,VWS V14.00,2013-07-01 08:13:00,
2013-07-01 04:18:00,59.4,57.8,30.03,North,353,0.0,0.0,94,0.00,,FEW,0.00,VWS V14.00,2013-07-01 08:18:00,
2013-07-01 04:23:00,59.3,57.7,30.03,North,353,0.0,0.0,94,0.00,,FEW,0.00,VWS V14.00,2013-07-01 08:23:00,
2013-07-01 04:28:00,59.1,57.5,30.04,North,353,0.0,0.0,94,0.00,,FEW,0.00,VWS V14.00,2013-07-01 08:28:00,
2013-07-01 04:30:00,59.2,57.6,30.04,North,353,0.0,0.0,94,0.00,,FEW,0.00,VWS V14.00,2013-07-01 08:30:00,
2013-07-01 04:33:00,59.0,57.4,30.04,North,353,0.0,0.0,94,0.00,,FEW,0.00,VWS V14.00,2013-07-01 08:33:00,
2013-07-01 04:38:00,58.9,57.4,30.04,North,353,0.0,0.0,95,0.00,,FEW,0.00,VWS V14.00,2013-07-01 08:38:00,
2013-07-01 04:43:00,58.9,57.4,30.04,North,353,0.0,0.0,95,0.00,,FEW,0.00,VWS V14.00,2013-07-01 08:43:00,
2013-07-01 04:48:00,58.8,57.3,30.04,North,353,0.0,0.0,95,0.00,,FEW,0.00,VWS V14.00,2013-07-01 08:48:00,
2013-07-01 04:53:00,58.9,57.4,30.04,North,353,0.0,0.0,95,0.00,,FEW,0.00,VWS V14.00,2013-07-01 08:53:00,
2013-07-01 04:58:00,58.9,57.4,30.05,North,353,0.0,0.0,95,0.00,,FEW,0.00,VWS V14.00,2013-07-01 08:58:00,
2013-07-01 05:00:00,58.9,57.4,30.04,North,353,0.0,0.0,95,0.00,,FEW,0.00,VWS V14.00,2013-07-01 09:00:00,
2013-07-01 05:03:00,58.9,57.4,30.04,North,353,0.0,0.0,95,0.00,,FEW,0.00,VWS V14.00,2013-07-01 09:03:00,
2013-07-01 05:08:00,58.8,57.3,30.04,North,353,0.0,0.0,95,0.00,,FEW,0.00,VWS V14.00,2013-07-01 09:08:00,
2013-07-01 05:13:00,58.7,57.3,30.04,North,353,0.0,0.0,95,0.00,,FEW,0.00,VWS V14.00,2013-07-01 09:13:00,
2013-07-01 05:18:00,58.9,57.5,30.04,North,353,0.0,0.0,95,0.00,,FEW,0.00,VWS V14.00,2013-07-01 09:18:00,
2013-07-01 05:23:00,59.0,57.6,30.04,North,353,0.0,0.0,95,0.00,,FEW,0.00,VWS V14.00,2013-07-01 09:23:00,
2013-07-01 05:28:00,58.9,57.5,30.05,North,353,0.0,0.0,95,0.00,,FEW,0.00,VWS V14.00,2013-07-01 09:28:00,
2013-07-01 05:30:00,58.9,57.5,30.05,North,353,0.0,0.0,95,0.00,,FEW,0.00,VWS V14.00,2013-07-01 09:30:00,
2013-07-01 05:33:00,58.9,57.5,30.05,North,353,0.0,0.0,95,0.00,,FEW,0.00,VWS V14.00,2013-07-01 09:33:00,
2013-07-01 05:38:00,59.0,57.6,30.05,North,353,0.0,0.0,95,0.00,,FEW,0.00,VWS V14.00,2013-07-01 09:38:00,
2013-07-01 05:43:00,59.0,57.6,30.06,North,353,0.0,0.0,95,0.00,,FEW,0.00,VWS V14.00,2013-07-01 09:43:00,
2013-07-01 05:48:00,58.7,57.3,30.06,North,353,0.0,0.0,95,0.00,,FEW,0.00,VWS V14.00,2013-07-01 09:48:00,
2013-07-01 05:53:00,58.8,57.4,30.06,North,353,0.0,0.0,95,0.00,,FEW,0.00,VWS V14.00,2013-07-01 09:53:00,
2013-07-01 05:58:00,58.7,57.3,30.06,North,353,0.0,0.0,95,0.00,,FEW,0.00,VWS V14.00,2013-07-01 09:58:00,
2013-07-01 06:00:00,58.9,57.5,30.06,North,353,0.0,0.0,95,0.00,,FEW,0.00,VWS V14.00,2013-07-01 10:00:00,
2013-07-01 06:03:00,58.9,57.6,30.06,North,353,0.0,0.0,95,0.00,,FEW,0.00,VWS V14.00,2013-07-01 10:03:00,
2013-07-01 06:09:00,59.3,58.0,30.06,North,353,0.0,0.0,95,0.00,,FEW,0.00,VWS V14.00,2013-07-01 10:09:00,
2013-07-01 06:14:00,59.5,58.2,30.06,North,353,0.0,0.0,95,0.00,,FEW,0.00,VWS V14.00,2013-07-01 10:14:00,
2013-07-01 06:19:00,59.5,58.2,30.07,North,353,0.0,0.0,95,0.00,,FEW,0.00,VWS V14.00,2013-07-01 10:19:00,
2013-07-01 06:24:00,59.4,58.0,30.07,North,353,0.0,0.0,95,0.00,,FEW,0.00,VWS V14.00,2013-07-01 10:24:00,
2013-07-01 06:29:00,59.6,58.3,30.07,NNE,18,0.0,2.3,95,0.00,,FEW,0.00,VWS V14.00,2013-07-01 10:29:00,
2013-07-01 06:30:00,59.5,58.2,30.07,North,353,0.0,0.0,95,0.00,,FEW,0.00,VWS V14.00,2013-07-01 10:30:00,
2013-07-01 06:34:00,59.9,58.6,30.07,NNE,27,0.0,2.9,96,0.00,,FEW,0.00,VWS V14.00,2013-07-01 10:34:00,
2013-07-01 06:39:00,60.3,59.0,30.08,North,10,0.0,2.9,96,0.00,,FEW,0.00,VWS V14.00,2013-07-01 10:39:00,
2013-07-01 06:44:00,60.5,59.2,30.08,NNE,20,0.0,2.9,95,0.00,,FEW,0.00,VWS V14.00,2013-07-01 10:44:00,
2013-07-01 06:49:00,60.5,59.2,30.08,NNE,30,0.0,2.9,95,0.00,,FEW,0.00,VWS V14.00,2013-07-01 10:49:00,
2013-07-01 06:54:00,60.5,59.2,30.08,NNE,27,1.7,3.4,95,0.00,,FEW,0.00,VWS V14.00,2013-07-01 10:54:00,
2013-07-01 06:59:00,60.6,59.2,30.07,NNE,22,2.1,2.7,95,0.00,,FEW,0.00,VWS V14.00,2013-07-01 10:59:00,
2013-07-01 07:00:00,60.6,59.2,30.07,NNE,22,1.2,3.4,95,0.00,,FEW,0.00,VWS V14.00,2013-07-01 11:00:00,
2013-07-01 07:04:00,60.8,59.5,30.08,North,8,0.0,2.9,95,0.00,,FEW,0.00,VWS V14.00,2013-07-01 11:04:00,
2013-07-01 07:09:00,60.9,59.5,30.08,NNE,25,0.0,4.0,95,0.00,,FEW,0.00,VWS V14.00,2013-07-01 11:09:00,
2013-07-01 07:14:00,61.1,59.7,30.08,NNE,30,2.3,5.2,95,0.00,,FEW,0.00,VWS V14.00,2013-07-01 11:14:00,
2013-07-01 07:19:00,61.3,59.9,30.08,NNE,32,0.0,5.2,95,0.00,,FEW,0.00,VWS V14.00,2013-07-01 11:19:00,
2013-07-01 07:24:00,61.4,59.9,30.08,ENE,59,1.2,5.2,95,0.01,,FEW,0.01,VWS V14.00,2013-07-01 11:24:00,
2013-07-01 07:29:00,61.5,59.9,30.08,NNE,15,0.0,4.0,94,0.01,,FEW,0.01,VWS V14.00,2013-07-01 11:29:00,
2013-07-01 07:30:00,61.5,59.9,30.08,NE,51,0.0,5.2,95,0.01,,FEW,0.01,VWS V14.00,2013-07-01 11:30:00,
2013-07-01 07:34:00,61.6,59.8,30.08,NE,48,2.7,5.2,94,0.01,,FEW,0.01,VWS V14.00,2013-07-01 11:34:00,
2013-07-01 07:39:00,61.8,59.9,30.09,NNE,32,0.0,5.2,94,0.01,,FEW,0.01,VWS V14.00,2013-07-01 11:39:00,
2013-07-01 07:44:00,61.8,59.7,30.09,NNE,20,2.7,5.2,93,0.01,,FEW,0.01,VWS V14.00,2013-07-01 11:44:00,
2013-07-01 07:49:00,62.0,59.9,30.08,NNE,17,2.9,5.7,93,0.01,,FEW,0.01,VWS V14.00,2013-07-01 11:49:00,
2013-07-01 07:54:00,62.1,59.9,30.08,NNE,17,0.8,5.7,92,0.01,,FEW,0.01,VWS V14.00,2013-07-01 11:54:00,
2013-07-01 07:59:00,62.2,59.8,30.08,NNE,24,0.9,4.5,92,0.01,,FEW,0.01,VWS V14.00,2013-07-01 11:59:00,
2013-07-01 08:00:00,62.1,59.8,30.08,NNE,24,1.4,5.7,92,0.01,,FEW,0.01,VWS V14.00,2013-07-01 12:00:00,
2013-07-01 08:04:00,62.5,60.2,30.08,NE,41,0.4,6.0,92,0.01,,FEW,0.01,VWS V14.00,2013-07-01 12:04:00,
2013-07-01 08:09:00,62.6,60.2,30.08,NE,38,1.6,6.0,92,0.00,,FEW,0.01,VWS V14.00,2013-07-01 12:09:00,
2013-07-01 08:14:00,62.7,60.3,30.08,ENE,68,1.7,6.0,92,0.00,,FEW,0.01,VWS V14.00,2013-07-01 12:14:00,
2013-07-01 08:19:00,62.9,60.4,30.08,North,6,2.5,6.0,92,0.00,,FEW,0.01,VWS V14.00,2013-07-01 12:19:00,
2013-07-01 08:24:00,63.0,60.3,30.08,NE,41,0.7,6.0,91,0.00,,FEW,0.01,VWS V14.00,2013-07-01 12:24:00,
2013-07-01 08:29:00,63.3,60.6,30.08,NNE,30,2.2,3.5,91,0.00,,FEW,0.01,VWS V14.00,2013-07-01 12:29:00,
2013-07-01 08:30:00,63.0,60.2,30.08,NE,46,3.2,6.0,90,0.00,,FEW,0.01,VWS V14.00,2013-07-01 12:30:00,
2013-07-01 08:34:00,63.2,60.2,30.09,NNE,32,2.3,6.5,90,0.00,,FEW,0.01,VWS V14.00,2013-07-01 12:34:00,
2013-07-01 08:39:00,63.6,60.7,30.09,NNE,28,1.6,6.5,90,0.00,,FEW,0.01,VWS V14.00,2013-07-01 12:39:00,
2013-07-01 08:44:00,63.8,60.6,30.09,NNE,17,1.9,6.5,89,0.00,,FEW,0.01,VWS V14.00,2013-07-01 12:44:00,
2013-07-01 08:49:00,64.0,60.6,30.10,NNE,30,1.4,6.5,89,0.00,,FEW,0.01,VWS V14.00,2013-07-01 12:49:00,
2013-07-01 08:54:00,64.1,60.4,30.10,NNE,14,2.3,6.5,88,0.00,,FEW,0.01,VWS V14.00,2013-07-01 12:54:00,
2013-07-01 08:59:00,64.0,60.2,30.10,NE,38,1.6,5.7,88,0.00,,FEW,0.01,VWS V14.00,2013-07-01 12:59:00,
2013-07-01 09:00:00,64.1,60.3,30.10,NE,37,2.5,6.5,88,0.00,,FEW,0.01,VWS V14.00,2013-07-01 13:00:00,
2013-07-01 09:04:00,64.4,60.8,30.10,NNE,28,2.4,5.7,88,0.00,,FEW,0.01,VWS V14.00,2013-07-01 13:04:00,
2013-07-01 09:09:00,64.4,60.3,30.10,NNE,31,2.4,5.7,86,0.00,,FEW,0.01,VWS V14.00,2013-07-01 13:09:00,
2013-07-01 09:14:00,64.6,60.2,30.10,NE,39,5.6,6.2,86,0.00,,FEW,0.01,VWS V14.00,2013-07-01 13:14:00,
2013-07-01 09:25:00,65.2,60.8,30.10,NE,34,4.3,8.2,86,0.00,,FEW,0.01,VWS V14.00,2013-07-01 13:25:00,
2013-07-01 09:30:00,65.4,60.5,30.09,NE,39,3.5,8.5,84,0.00,,FEW,0.01,VWS V14.00,2013-07-01 13:30:00,
2013-07-01 09:35:00,65.8,60.9,30.09,NNE,28,2.4,8.5,84,0.00,,FEW,0.01,VWS V14.00,2013-07-01 13:35:00,
2013-07-01 09:40:00,66.2,60.9,30.09,NNE,22,8.1,8.5,83,0.00,,FEW,0.01,VWS V14.00,2013-07-01 13:40:00,
2013-07-01 09:45:00,66.2,60.8,30.09,NE,46,3.0,9.8,83,0.00,,FEW,0.01,VWS V14.00,2013-07-01 13:45:00,
2013-07-01 09:50:00,66.6,60.6,30.10,NNE,28,7.0,9.8,81,0.00,,FEW,0.01,VWS V14.00,2013-07-01 13:50:00,
2013-07-01 09:56:00,66.8,61.1,30.10,NNE,28,3.2,9.8,82,0.00,,FEW,0.01,VWS V14.00,2013-07-01 13:56:00,
2013-07-01 10:00:00,64.1,60.3,30.10,NE,37,2.5,6.5,88,0.00,,SCT,0.01,VWS V14.00,2013-07-01 14:00:00,
2013-07-01 10:01:00,67.2,60.8,30.10,NE,39,5.5,8.7,80,0.00,,FEW,0.01,VWS V14.00,2013-07-01 14:01:00,
2013-07-01 10:06:00,67.7,61.0,30.10,NNE,14,8.0,8.7,79,0.00,,FEW,0.01,VWS V14.00,2013-07-01 14:06:00,
2013-07-01 10:11:00,67.8,60.6,30.10,NE,49,2.6,10.9,78,0.00,,FEW,0.01,VWS V14.00,2013-07-01 14:11:00,
2013-07-01 10:16:00,68.0,60.7,30.10,NNE,22,6.2,10.9,78,0.00,,FEW,0.01,VWS V14.00,2013-07-01 14:16:00,
2013-07-01 10:21:00,68.2,61.1,30.10,NNE,25,5.4,10.9,78,0.00,,FEW,0.01,VWS V14.00,2013-07-01 14:21:00,
2013-07-01 10:26:00,68.3,61.4,30.09,NNE,18,4.4,10.9,79,0.00,,FEW,0.01,VWS V14.00,2013-07-01 14:26:00,
2013-07-01 10:30:00,65.2,60.7,30.10,NNE,27,2.2,8.2,85,0.00,,SCT,0.01,VWS V14.00,2013-07-01 14:30:00,
2013-07-01 10:31:00,68.3,61.0,30.10,NE,56,0.7,7.1,78,0.00,,FEW,0.01,VWS V14.00,2013-07-01 14:31:00,
2013-07-01 10:36:00,68.4,60.6,30.10,NE,48,1.5,7.6,76,0.00,,FEW,0.01,VWS V14.00,2013-07-01 14:36:00,
2013-07-01 10:41:00,68.5,60.8,30.10,NNE,17,7.3,9.8,76,0.00,,FEW,0.01,VWS V14.00,2013-07-01 14:41:00,
2013-07-01 10:46:00,68.5,61.0,30.10,NW,315,1.2,9.8,77,0.00,,FEW,0.01,VWS V14.00,2013-07-01 14:46:00,
2013-07-01 10:51:00,68.7,61.0,30.10,North,7,3.8,9.8,76,0.00,,FEW,0.01,VWS V14.00,2013-07-01 14:51:00,
2013-07-01 10:56:00,68.9,61.4,30.10,NNE,17,4.7,9.8,77,0.00,,FEW,0.01,VWS V14.00,2013-07-01 14:56:00,
2013-07-01 11:00:00,67.0,61.6,30.10,NNE,32,8.1,9.8,83,0.00,,SCT,0.01,VWS V14.00,2013-07-01 15:00:00,
2013-07-01 11:01:00,68.7,60.9,30.10,NNE,21,5.0,8.9,76,0.00,,FEW,0.01,VWS V14.00,2013-07-01 15:01:00,
2013-07-01 11:06:00,68.7,61.1,30.10,NNE,27,5.8,8.9,77,0.00,,FEW,0.01,VWS V14.00,2013-07-01 15:06:00,
2013-07-01 11:11:00,68.8,61.1,30.10,North,10,3.2,8.9,76,0.00,,FEW,0.01,VWS V14.00,2013-07-01 15:11:00,
2013-07-01 11:16:00,68.8,61.1,30.10,North,7,3.2,8.9,76,0.00,,FEW,0.01,VWS V14.00,2013-07-01 15:16:00,
2013-07-01 11:21:00,68.7,60.3,30.10,NE,37,7.6,11.4,75,0.00,,FEW,0.01,VWS V14.00,2013-07-01 15:21:00,
2013-07-01 11:26:00,68.8,60.5,30.11,NNE,22,6.4,11.4,75,0.00,,FEW,0.01,VWS V14.00,2013-07-01 15:26:00,
2013-07-01 11:30:00,68.3,61.2,30.09,NW,314,1.4,10.9,78,0.00,,SCT,0.01,VWS V14.00,2013-07-01 15:30:00,
2013-07-01 11:31:00,69.3,60.9,30.10,NNE,17,6.7,7.8,74,0.00,,FEW,0.01,VWS V14.00,2013-07-01 15:31:00,
2013-07-01 11:36:00,69.4,61.2,30.10,NNE,22,9.8,9.8,75,0.00,,FEW,0.01,VWS V14.00,2013-07-01 15:36:00,
2013-07-01 11:41:00,69.3,60.3,30.10,NNW,342,4.4,12.0,73,0.00,,FEW,0.01,VWS V14.00,2013-07-01 15:41:00,
2013-07-01 11:46:00,69.2,60.8,30.10,NE,34,5.2,12.1,75,0.00,,FEW,0.01,VWS V14.00,2013-07-01 15:46:00,
2013-07-01 11:51:00,69.3,60.5,30.10,NNE,24,8.6,12.1,74,0.00,,FEW,0.01,VWS V14.00,2013-07-01 15:51:00,
2013-07-01 11:56:00,69.4,61.2,30.10,NNW,329,1.9,12.1,75,0.00,,FEW,0.01,VWS V14.00,2013-07-01 15:56:00,
2013-07-01 12:00:00,68.8,61.0,30.10,NNE,14,4.8,9.8,76,0.00,,SCT,0.01,VWS V14.00,2013-07-01 16:00:00,
2013-07-01 12:01:00,69.5,60.9,30.10,North,359,4.6,9.5,74,0.00,,FEW,0.01,VWS V14.00,2013-07-01 16:01:00,
2013-07-01 12:06:00,69.7,61.5,30.10,ENE,58,3.9,9.5,75,0.00,,FEW,0.01,VWS V14.00,2013-07-01 16:06:00,
2013-07-01 12:11:00,69.8,61.0,30.10,NNE,17,2.5,11.5,74,0.00,,FEW,0.01,VWS V14.00,2013-07-01 16:11:00,
2013-07-01 12:16:00,69.9,60.9,30.11,NNE,25,6.0,11.6,73,0.00,,FEW,0.01,VWS V14.00,2013-07-01 16:16:00,
2013-07-01 12:21:00,69.7,60.5,30.10,North,359,3.6,11.6,73,0.00,,FEW,0.01,VWS V14.00,2013-07-01 16:21:00,
2013-07-01 12:26:00,70.1,60.6,30.11,NNE,13,9.4,11.6,72,0.00,,FEW,0.01,VWS V14.00,2013-07-01 16:26:00,
2013-07-01 12:30:00,68.8,60.8,30.11,NNE,30,2.7,11.4,76,0.00,,SCT,0.01,VWS V14.00,2013-07-01 16:30:00,
2013-07-01 12:31:00,70.0,61.0,30.11,NNE,32,6.5,13.7,73,0.00,,FEW,0.01,VWS V14.00,2013-07-01 16:31:00,
2013-07-01 12:36:00,70.1,60.6,30.11,NE,44,5.5,13.7,72,0.00,,FEW,0.01,VWS V14.00,2013-07-01 16:36:00,
2013-07-01 12:41:00,70.4,61.0,30.10,NE,38,6.0,13.7,72,0.00,,FEW,0.01,VWS V14.00,2013-07-01 16:41:00,
2013-07-01 12:46:00,70.2,60.2,30.10,NNE,14,5.7,13.7,71,0.00,,FEW,0.01,VWS V14.00,2013-07-01 16:46:00,
2013-07-01 12:51:00,70.2,60.8,30.11,North,11,2.7,13.7,72,0.00,,FEW,0.01,VWS V14.00,2013-07-01 16:51:00,
2013-07-01 12:56:00,70.3,61.0,30.11,NNE,21,3.7,13.7,72,0.00,,FEW,0.01,VWS V14.00,2013-07-01 16:56:00,
2013-07-01 13:00:00,69.4,61.4,30.10,NE,34,4.0,12.1,76,0.00,,SCT,0.01,VWS V14.00,2013-07-01 17:00:00,
2013-07-01 13:01:00,70.4,60.7,30.10,NNE,17,8.7,12.2,71,0.00,,FEW,0.01,VWS V14.00,2013-07-01 17:01:00,
2013-07-01 13:06:00,70.6,61.1,30.10,North,4,3.5,12.2,72,0.00,,FEW,0.01,VWS V14.00,2013-07-01 17:06:00,
2013-07-01 13:11:00,70.9,61.3,30.10,North,359,5.4,12.2,72,0.00,,FEW,0.01,VWS V14.00,2013-07-01 17:11:00,
2013-07-01 13:16:00,71.1,61.5,30.10,NNW,338,1.6,12.2,72,0.00,,FEW,0.01,VWS V14.00,2013-07-01 17:16:00,
2013-07-01 13:21:00,71.3,61.7,30.10,NE,37,3.5,12.2,72,0.00,,FEW,0.01,VWS V14.00,2013-07-01 17:21:00,
2013-07-01 13:26:00,71.1,61.3,30.10,North,359,4.6,12.2,71,0.00,,FEW,0.01,VWS V14.00,2013-07-01 17:26:00,
2013-07-01 13:30:00,69.9,60.3,30.11,ENE,70,3.7,11.6,72,0.00,,SCT,0.01,VWS V14.00,2013-07-01 17:30:00,
2013-07-01 13:31:00,70.7,60.7,30.10,NW,326,4.7,11.8,71,0.00,,FEW,0.01,VWS V14.00,2013-07-01 17:31:00,
2013-07-01 13:36:00,70.8,60.7,30.09,North,10,10.5,11.8,70,0.00,,FEW,0.01,VWS V14.00,2013-07-01 17:36:00,
2013-07-01 13:41:00,70.6,60.5,30.09,NE,37,5.2,13.5,70,0.00,,FEW,0.01,VWS V14.00,2013-07-01 17:41:00,
2013-07-01 13:46:00,70.7,60.2,30.09,NNE,22,5.0,13.5,69,0.00,,FEW,0.01,VWS V14.00,2013-07-01 17:46:00,
2013-07-01 13:51:00,70.8,60.7,30.09,North,7,6.0,13.5,70,0.00,,FEW,0.01,VWS V14.00,2013-07-01 17:51:00,
2013-07-01 13:56:00,70.9,60.5,30.09,NE,34,7.2,13.5,70,0.00,,FEW,0.01,VWS V14.00,2013-07-01 17:56:00,
2013-07-01 14:00:00,70.5,61.3,30.11,North,4,3.0,13.7,73,0.00,,SCT,0.01,VWS V14.00,2013-07-01 18:00:00,
2013-07-01 14:01:00,70.8,60.6,30.09,ENE,73,4.6,11.6,70,0.00,,FEW,0.01,VWS V14.00,2013-07-01 18:01:00,
2013-07-01 14:06:00,71.3,61.4,30.09,NNW,339,1.2,11.6,71,0.00,,FEW,0.01,VWS V14.00,2013-07-01 18:06:00,
2013-07-01 14:11:00,71.2,60.1,30.09,NNE,32,6.3,11.8,68,0.00,,FEW,0.01,VWS V14.00,2013-07-01 18:11:00,
2013-07-01 14:16:00,71.3,60.4,30.10,North,1,4.3,11.8,68,0.00,,FEW,0.01,VWS V14.00,2013-07-01 18:16:00,
2013-07-01 14:21:00,71.6,61.0,30.10,NNE,25,4.5,11.8,69,0.00,,FEW,0.01,VWS V14.00,2013-07-01 18:21:00,
2013-07-01 14:26:00,71.5,59.6,30.10,NE,44,8.0,13.2,66,0.00,,FEW,0.01,VWS V14.00,2013-07-01 18:26:00,
2013-07-01 14:30:00,70.9,60.8,30.10,NE,38,6.5,12.2,70,0.00,,SCT,0.01,VWS V14.00,2013-07-01 18:30:00,
2013-07-01 14:31:00,71.4,59.2,30.10,NNE,24,11.2,11.2,65,0.00,,FEW,0.01,VWS V14.00,2013-07-01 18:31:00,
2013-07-01 14:36:00,71.1,59.5,30.10,ENE,68,5.6,11.2,67,0.00,,FEW,0.01,VWS V14.00,2013-07-01 18:36:00,
2013-07-01 14:41:00,71.2,59.3,30.10,NE,46,8.3,11.2,66,0.00,,FEW,0.01,VWS V14.00,2013-07-01 18:41:00,
2013-07-01 14:46:00,71.1,58.9,30.10,NE,45,4.2,12.6,65,0.00,,FEW,0.01,VWS V14.00,2013-07-01 18:46:00,
2013-07-01 14:51:00,71.2,59.7,30.10,NE,35,6.0,12.6,67,0.00,,FEW,0.01,VWS V14.00,2013-07-01 18:51:00,
2013-07-01 14:56:00,71.4,59.0,30.10,NE,49,7.4,12.6,65,0.00,,FEW,0.01,VWS V14.00,2013-07-01 18:56:00,
2013-07-01 15:00:00,70.8,60.2,30.09,NNE,32,8.5,13.5,69,0.00,,SCT,0.01,VWS V14.00,2013-07-01 19:00:00,
2013-07-01 15:01:00,71.5,59.5,30.11,NE,37,5.9,10.2,66,0.00,,FEW,0.01,VWS V14.00,2013-07-01 19:01:00,
2013-07-01 15:06:00,71.6,59.8,30.11,North,8,5.2,11.2,66,0.00,,FEW,0.01,VWS V14.00,2013-07-01 19:06:00,
2013-07-01 15:11:00,71.5,58.4,30.11,NE,44,6.8,11.2,63,0.00,,FEW,0.01,VWS V14.00,2013-07-01 19:11:00,
2013-07-01 15:16:00,71.5,59.3,30.11,NE,34,5.5,11.2,65,0.00,,FEW,0.01,VWS V14.00,2013-07-01 19:16:00,
2013-07-01 15:21:00,71.5,58.7,30.11,NNE,31,3.0,11.2,64,0.00,,FEW,0.01,VWS V14.00,2013-07-01 19:21:00,
2013-07-01 15:26:00,71.4,58.7,30.11,NNE,18,7.7,9.2,64,0.00,,FEW,0.01,VWS V14.00,2013-07-01 19:26:00,
2013-07-01 15:30:00,71.5,59.6,30.10,NE,44,8.0,13.2,66,0.00,,SCT,0.01,VWS V14.00,2013-07-01 19:30:00,
2013-07-01 15:31:00,71.3,58.7,30.11,North,4,5.4,9.8,64,0.00,,FEW,0.01,VWS V14.00,2013-07-01 19:31:00,
2013-07-01 15:36:00,71.3,58.9,30.11,North,1,5.3,11.2,65,0.00,,FEW,0.01,VWS V14.00,2013-07-01 19:36:00,
2013-07-01 15:41:00,71.3,58.8,30.11,NNE,25,7.7,11.2,65,0.00,,FEW,0.01,VWS V14.00,2013-07-01 19:41:00,
2013-07-01 15:46:00,70.9,56.2,30.11,NW,326,4.0,11.2,60,0.00,,FEW,0.01,VWS V14.00,2013-07-01 19:46:00,
2013-07-01 15:51:00,70.7,57.2,30.11,North,6,7.7,12.1,62,0.00,,FEW,0.01,VWS V14.00,2013-07-01 19:51:00,
2013-07-01 15:56:00,70.6,56.7,30.11,NNE,32,1.8,4.3,62,0.00,,FEW,0.01,VWS V14.00,2013-07-01 19:56:00,
2013-07-01 16:00:00,71.4,59.0,30.10,NE,49,7.4,12.6,65,0.00,,SCT,0.01,VWS V14.00,2013-07-01 20:00:00,
2013-07-01 16:01:00,70.5,56.3,30.10,NE,35,5.0,9.6,61,0.00,,FEW,0.01,VWS V14.00,2013-07-01 20:01:00,
2013-07-01 16:06:00,70.6,56.3,30.10,ENE,58,2.0,9.6,60,0.00,,FEW,0.01,VWS V14.00,2013-07-01 20:06:00,
2013-07-01 16:11:00,70.6,55.5,30.11,North,359,5.9,9.6,59,0.00,,FEW,0.01,VWS V14.00,2013-07-01 20:11:00,
2013-07-01 16:16:00,70.5,56.5,30.11,NNE,24,1.7,9.6,61,0.00,,FEW,0.01,VWS V14.00,2013-07-01 20:16:00,
2013-07-01 16:21:00,70.2,55.2,30.11,NE,37,4.3,9.9,59,0.00,,FEW,0.01,VWS V14.00,2013-07-01 20:21:00,
2013-07-01 16:26:00,70.3,55.6,30.11,NNE,24,2.7,4.0,60,0.00,,FEW,0.01,VWS V14.00,2013-07-01 20:26:00,
2013-07-01 16:30:00,71.4,58.7,30.11,North,11,8.3,11.2,64,0.00,,SCT,0.01,VWS V14.00,2013-07-01 20:30:00,
2013-07-01 16:32:00,70.1,55.5,30.11,NE,48,2.1,8.4,60,0.00,,FEW,0.01,VWS V14.00,2013-07-01 20:32:00,
2013-07-01 16:37:00,69.9,55.1,30.11,NE,35,4.1,8.4,59,0.00,,FEW,0.01,VWS V14.00,2013-07-01 20:37:00,
2013-07-01 16:42:00,69.8,55.1,30.11,NE,34,4.3,9.9,60,0.00,,FEW,0.01,VWS V14.00,2013-07-01 20:42:00,
2013-07-01 16:47:00,69.7,55.3,30.11,NE,55,2.4,9.9,60,0.00,,FEW,0.01,VWS V14.00,2013-07-01 20:47:00,
2013-07-01 16:52:00,69.8,56.0,30.10,NNE,28,5.3,9.9,62,0.00,,FEW,0.01,VWS V14.00,2013-07-01 20:52:00,
2013-07-01 16:57:00,69.6,55.4,30.10,NE,37,2.5,2.9,61,0.00,,FEW,0.01,VWS V14.00,2013-07-01 20:57:00,
2013-07-01 17:00:00,70.6,56.7,30.11,NE,41,4.3,12.1,62,0.00,,SCT,0.01,VWS V14.00,2013-07-01 21:00:00,
2013-07-01 17:02:00,69.6,55.4,30.10,North,1,4.7,6.2,61,0.00,,FEW,0.01,VWS V14.00,2013-07-01 21:02:00,
2013-07-01 17:07:00,69.6,55.9,30.10,NNE,30,3.8,7.0,62,0.00,,FEW,0.01,VWS V14.00,2013-07-01 21:07:00,
2013-07-01 17:12:00,69.8,56.1,30.11,East,79,0.6,8.6,62,0.00,,FEW,0.01,VWS V14.00,2013-07-01 21:12:00,
2013-07-01 17:17:00,69.6,55.8,30.11,NNE,24,5.2,8.6,61,0.00,,FEW,0.01,VWS V14.00,2013-07-01 21:17:00,
2013-07-01 17:22:00,69.4,55.4,30.11,North,1,2.4,9.3,61,0.00,,FEW,0.01,VWS V14.00,2013-07-01 21:22:00,
2013-07-01 17:27:00,69.4,55.6,30.11,North,8,2.2,3.9,61,0.00,,FEW,0.01,VWS V14.00,2013-07-01 21:27:00,
2013-07-01 17:30:00,70.4,56.0,30.11,NNE,22,4.0,9.9,60,0.00,,SCT,0.01,VWS V14.00,2013-07-01 21:30:00,
2013-07-01 17:32:00,69.1,55.0,30.11,NNE,31,6.0,7.7,61,0.00,,FEW,0.01,VWS V14.00,2013-07-01 21:32:00,
2013-07-01 17:37:00,69.1,55.2,30.10,NNE,28,6.0,7.7,61,0.00,,FEW,0.01,VWS V14.00,2013-07-01 21:37:00,
2013-07-01 17:42:00,68.9,55.0,30.10,ENE,58,2.1,9.2,61,0.00,,FEW,0.01,VWS V14.00,2013-07-01 21:42:00,
2013-07-01 17:47:00,69.0,55.1,30.10,North,0,1.6,9.2,61,0.00,,FEW,0.01,VWS V14.00,2013-07-01 21:47:00,
2013-07-01 17:52:00,68.8,54.9,30.11,NNE,30,3.3,9.2,61,0.00,,FEW,0.01,VWS V14.00,2013-07-01 21:52:00,
2013-07-01 17:57:00,68.8,54.7,30.10,NNE,17,4.1,5.7,61,0.00,,FEW,0.01,VWS V14.00,2013-07-01 21:57:00,
2013-07-01 18:00:00,69.7,55.2,30.10,NNE,22,2.9,9.9,60,0.00,,SCT,0.01,VWS V14.00,2013-07-01 22:00:00,
2013-07-01 18:02:00,68.8,54.6,30.10,NNE,25,6.6,7.0,60,0.00,,FEW,0.01,VWS V14.00,2013-07-01 22:02:00,
2013-07-01 18:07:00,68.7,54.5,30.10,NNW,333,3.6,8.5,61,0.00,,FEW,0.01,VWS V14.00,2013-07-01 22:07:00,
2013-07-01 18:12:00,68.9,54.5,30.10,NNE,22,4.1,11.5,60,0.00,,FEW,0.01,VWS V14.00,2013-07-01 22:12:00,
2013-07-01 18:17:00,68.9,54.0,30.10,NE,44,3.3,11.5,59,0.00,,FEW,0.01,VWS V14.00,2013-07-01 22:17:00,
2013-07-01 18:22:00,68.9,54.0,30.11,North,0,3.1,11.5,59,0.00,,FEW,0.01,VWS V14.00,2013-07-01 22:22:00,
2013-07-01 18:27:00,68.8,54.3,30.11,NE,38,3.8,3.9,60,0.00,,FEW,0.01,VWS V14.00,2013-07-01 22:27:00,
2013-07-01 18:30:00,69.5,55.5,30.11,NNE,27,3.8,9.3,61,0.00,,SCT,0.01,VWS V14.00,2013-07-01 22:30:00,
2013-07-01 18:32:00,68.7,54.5,30.11,North,359,3.0,8.0,60,0.00,,FEW,0.01,VWS V14.00,2013-07-01 22:32:00,
2013-07-01 18:37:00,68.5,54.3,30.11,NNE,18,1.8,8.0,60,0.00,,FEW,0.01,VWS V14.00,2013-07-01 22:37:00,
2013-07-01 18:42:00,68.6,54.6,30.11,NE,42,3.1,8.0,61,0.00,,FEW,0.01,VWS V14.00,2013-07-01 22:42:00,
2013-07-01 18:47:00,68.5,54.5,30.11,NNE,20,4.5,8.0,61,0.00,,FEW,0.01,VWS V14.00,2013-07-01 22:47:00,
2013-07-01 18:52:00,68.4,54.7,30.11,NNE,22,5.2,8.0,62,0.00,,FEW,0.01,VWS V14.00,2013-07-01 22:52:00,
2013-07-01 18:57:00,68.4,54.6,30.11,NE,46,2.7,4.8,61,0.00,,FEW,0.01,VWS V14.00,2013-07-01 22:57:00,
2013-07-01 19:00:00,68.8,55.0,30.10,North,3,2.4,9.2,61,0.00,,SCT,0.01,VWS V14.00,2013-07-01 23:00:00,
2013-07-01 19:02:00,68.4,54.6,30.11,NNE,30,2.2,6.8,61,0.00,,FEW,0.01,VWS V14.00,2013-07-01 23:02:00,
2013-07-01 19:07:00,68.5,54.6,30.11,NNE,28,2.5,7.1,61,0.00,,FEW,0.01,VWS V14.00,2013-07-01 23:07:00,
2013-07-01 19:12:00,68.4,54.4,30.11,NNE,18,5.0,7.4,61,0.00,,FEW,0.01,VWS V14.00,2013-07-01 23:12:00,
2013-07-01 19:17:00,68.5,54.5,30.11,NNE,24,4.0,7.4,61,0.00,,FEW,0.01,VWS V14.00,2013-07-01 23:17:00,
2013-07-01 19:22:00,68.4,54.7,30.12,NE,39,2.1,7.4,62,0.00,,FEW,0.01,VWS V14.00,2013-07-01 23:22:00,
2013-07-01 19:27:00,68.3,54.3,30.12,North,8,2.9,6.6,61,0.00,,FEW,0.01,VWS V14.00,2013-07-01 23:27:00,
2013-07-01 19:30:00,68.8,53.9,30.11,NNE,14,3.9,11.5,59,0.00,,SCT,0.01,VWS V14.00,2013-07-01 23:30:00,
2013-07-01 19:32:00,68.3,54.6,30.11,NNE,27,3.7,7.3,62,0.00,,FEW,0.01,VWS V14.00,2013-07-01 23:32:00,
2013-07-01 19:37:00,68.2,54.1,30.11,NE,53,5.2,8.2,61,0.00,,FEW,0.01,VWS V14.00,2013-07-01 23:37:00,
2013-07-01 19:42:00,68.2,54.7,30.11,North,3,2.9,8.2,62,0.00,,FEW,0.01,VWS V14.00,2013-07-01 23:42:00,
2013-07-01 19:47:00,68.1,54.5,30.11,North,0,2.4,8.7,62,0.00,,FEW,0.01,VWS V14.00,2013-07-01 23:47:00,
2013-07-01 19:52:00,67.9,55.2,30.11,NNE,31,2.6,8.9,64,0.00,,FEW,0.01,VWS V14.00,2013-07-01 23:52:00,
2013-07-01 19:57:00,67.4,55.3,30.11,NNE,22,2.2,4.2,65,0.00,,FEW,0.01,VWS V14.00,2013-07-01 23:57:00,
2013-07-01 20:00:00,68.5,54.8,30.11,NE,37,2.1,8.0,62,0.00,,SCT,0.01,VWS V14.00,2013-07-02 00:00:00,
2013-07-01 20:02:00,67.2,55.8,30.11,NNE,30,2.4,5.5,67,0.00,,FEW,0.01,VWS V14.00,2013-07-02 00:02:00,
2013-07-01 20:07:00,66.9,55.6,30.12,ENE,58,0.8,5.6,67,0.00,,FEW,0.01,VWS V14.00,2013-07-02 00:07:00,
2013-07-01 20:12:00,66.8,55.9,30.12,NNE,30,1.9,5.6,68,0.00,,FEW,0.01,VWS V14.00,2013-07-02 00:12:00,
2013-07-01 20:17:00,66.5,55.6,30.12,East,83,1.2,5.6,68,0.00,,FEW,0.01,VWS V14.00,2013-07-02 00:17:00,
2013-07-01 20:22:00,66.3,56.1,30.13,NNE,15,2.7,5.6,70,0.00,,FEW,0.01,VWS V14.00,2013-07-02 00:22:00,
2013-07-01 20:27:00,66.0,56.2,30.13,NE,37,1.9,2.4,71,0.00,,FEW,0.01,VWS V14.00,2013-07-02 00:27:00,
2013-07-01 20:30:00,68.3,54.3,30.12,NE,51,6.6,8.8,61,0.00,,SCT,0.01,VWS V14.00,2013-07-02 00:30:00,
2013-07-01 20:32:00,65.7,56.3,30.13,NE,38,1.5,3.9,72,0.00,,FEW,0.01,VWS V14.00,2013-07-02 00:32:00,
2013-07-01 20:37:00,65.7,56.8,30.13,NE,39,1.9,3.9,73,0.00,,OVC,0.01,VWS V14.00,2013-07-02 00:37:00,
2013-07-01 20:42:00,65.4,56.6,30.13,NNE,31,1.7,4.5,73,0.00,,OVC,0.01,VWS V14.00,2013-07-02 00:42:00,
2013-07-01 20:47:00,65.2,56.5,30.13,North,3,2.4,5.9,73,0.00,,OVC,0.01,VWS V14.00,2013-07-02 00:47:00,
2013-07-01 20:52:00,65.2,56.8,30.13,ENE,59,2.2,5.9,74,0.00,,OVC,0.01,VWS V14.00,2013-07-02 00:52:00,
2013-07-01 21:00:00,67.5,55.4,30.11,NW,323,1.4,8.9,65,0.00,,SCT,0.01,VWS V14.00,2013-07-02 01:00:00,
2013-07-01 21:02:00,65.1,56.9,30.14,NNE,32,1.4,3.0,75,0.00,,OVC,0.01,VWS V14.00,2013-07-02 01:02:00,
2013-07-01 21:07:00,65.2,57.0,30.14,North,6,1.4,3.7,75,0.00,,OVC,0.01,VWS V14.00,2013-07-02 01:07:00,
2013-07-01 21:12:00,65.1,56.8,30.14,NNE,18,2.1,5.2,75,0.00,,OVC,0.01,VWS V14.00,2013-07-02 01:12:00,
2013-07-01 21:17:00,65.1,56.7,30.14,NE,39,3.9,5.2,74,0.00,,OVC,0.01,VWS V14.00,2013-07-02 01:17:00,
2013-07-01 21:22:00,65.1,56.3,30.14,NE,46,3.7,7.9,73,0.00,,OVC,0.01,VWS V14.00,2013-07-02 01:22:00,
2013-07-01 21:27:00,65.2,56.3,30.14,NNE,31,2.5,6.0,73,0.00,,OVC,0.01,VWS V14.00,2013-07-02 01:27:00,
2013-07-01 21:30:00,66.1,56.4,30.13,NE,52,1.3,5.6,71,0.00,,SCT,0.01,VWS V14.00,2013-07-02 01:30:00,
2013-07-01 21:32:00,65.4,56.6,30.14,NNE,17,2.2,6.2,73,0.00,,OVC,0.01,VWS V14.00,2013-07-02 01:32:00,
2013-07-01 21:37:00,65.5,56.9,30.15,NE,48,1.7,7.5,74,0.00,,OVC,0.01,VWS V14.00,2013-07-02 01:37:00,
2013-07-01 21:42:00,65.4,57.2,30.15,NNE,28,1.9,7.5,75,0.00,,OVC,0.01,VWS V14.00,2013-07-02 01:42:00,
2013-07-01 21:47:00,65.2,57.0,30.15,NNE,28,5.0,7.8,75,0.00,,OVC,0.01,VWS V14.00,2013-07-02 01:47:00,
2013-07-01 21:52:00,64.9,56.6,30.16,NE,41,2.5,7.8,74,0.00,,OVC,0.01,VWS V14.00,2013-07-02 01:52:00,
2013-07-01 21:57:00,64.7,56.0,30.16,East,86,6.6,8.6,73,0.00,,OVC,0.01,VWS V14.00,2013-07-02 01:57:00,
2013-07-01 22:00:00,65.1,56.8,30.13,NE,44,1.2,5.9,75,0.00,,SCT,0.01,VWS V14.00,2013-07-02 02:00:00,
2013-07-01 22:02:00,64.5,55.7,30.15,ESE,107,5.8,8.6,73,0.00,,OVC,0.01,VWS V14.00,2013-07-02 02:02:00,
2013-07-01 22:07:00,64.3,54.8,30.15,NNE,14,3.0,8.6,71,0.00,,OVC,0.01,VWS V14.00,2013-07-02 02:07:00,
2013-07-01 22:12:00,64.2,54.2,30.15,East,87,3.5,9.1,70,0.00,,OVC,0.01,VWS V14.00,2013-07-02 02:12:00,
2013-07-01 22:17:00,63.9,54.5,30.15,ENE,69,3.5,9.1,72,0.00,,OVC,0.01,VWS V14.00,2013-07-02 02:17:00,
2013-07-01 22:22:00,63.5,54.2,30.15,NNE,28,4.1,9.1,72,0.00,,OVC,0.01,VWS V14.00,2013-07-02 02:22:00,
2013-07-01 22:27:00,63.2,54.0,30.15,NE,48,2.0,9.2,72,0.01,,OVC,0.02,VWS V14.00,2013-07-02 02:27:00,
2013-07-01 22:30:00,65.3,56.5,30.14,NNE,18,4.8,7.9,73,0.00,,SCT,0.01,VWS V14.00,2013-07-02 02:30:00,
2013-07-01 22:32:00,63.0,53.7,30.15,NNE,24,4.7,9.2,72,0.01,,OVC,0.02,VWS V14.00,2013-07-02 02:32:00,
2013-07-01 22:38:00,63.0,53.8,30.15,NNE,22,2.4,9.2,72,0.01,,OVC,0.02,VWS V14.00,2013-07-02 02:38:00,
2013-07-01 22:43:00,63.2,53.3,30.15,NNE,18,3.0,9.2,70,0.01,,OVC,0.02,VWS V14.00,2013-07-02 02:43:00,
2013-07-01 22:48:00,63.4,53.5,30.15,NE,39,4.0,9.2,70,0.01,,OVC,0.02,VWS V14.00,2013-07-02 02:48:00,
2013-07-01 22:53:00,63.5,53.5,30.15,NE,49,1.2,9.2,70,0.01,,OVC,0.02,VWS V14.00,2013-07-02 02:53:00,
2013-07-01 22:58:00,63.5,53.5,30.15,North,350,2.6,4.3,70,0.01,,OVC,0.02,VWS V14.00,2013-07-02 02:58:00,
2013-07-01 23:00:00,64.8,56.4,30.16,NNE,25,2.7,9.4,74,0.00,,SCT,0.01,VWS V14.00,2013-07-02 03:00:00,
2013-07-01 23:03:00,63.6,53.5,30.15,NE,51,2.7,6.3,70,0.01,,OVC,0.02,VWS V14.00,2013-07-02 03:03:00,
2013-07-01 23:08:00,63.5,53.2,30.15,NNE,15,4.3,7.8,69,0.00,,OVC,0.02,VWS V14.00,2013-07-02 03:08:00,
2013-07-01 23:13:00,63.5,52.8,30.15,NNE,32,5.8,8.7,68,0.00,,OVC,0.02,VWS V14.00,2013-07-02 03:13:00,
2013-07-01 23:18:00,63.7,52.9,30.15,ENE,72,2.0,8.7,68,0.00,,OVC,0.02,VWS V14.00,2013-07-02 03:18:00,
2013-07-01 23:23:00,63.7,52.4,30.15,NE,48,4.4,8.7,67,0.00,,OVC,0.02,VWS V14.00,2013-07-02 03:23:00,
2013-07-01 23:28:00,63.8,52.2,30.15,ENE,59,3.3,7.0,66,0.00,,OVC,0.02,VWS V14.00,2013-07-02 03:28:00,
2013-07-01 23:30:00,63.3,54.2,30.15,ENE,59,2.8,9.1,72,0.01,,SCT,0.02,VWS V14.00,2013-07-02 03:30:00,
2013-07-01 23:33:00,63.8,51.7,30.15,North,6,3.2,8.8,65,0.00,,OVC,0.02,VWS V14.00,2013-07-02 03:33:00,
2013-07-01 23:38:00,63.7,51.8,30.15,ENE,73,2.9,8.8,65,0.00,,OVC,0.02,VWS V14.00,2013-07-02 03:38:00,
2013-07-01 23:43:00,63.7,51.8,30.15,North,3,4.0,8.8,65,0.00,,OVC,0.02,VWS V14.00,2013-07-02 03:43:00,
2013-07-01 23:53:00,63.5,52.2,30.14,NNE,31,3.3,8.8,66,0.00,,OVC,0.02,VWS V14.00,2013-07-02 03:53:00,